Radiation Dose at Monitoring Post of Fukushima Daini Nuclear Power Station
Date,Time,MP-1(microSv/h),MP-2(microSv/h),MP-3(microSv/h),MP-4(microSv/h),MP-5(microSv/h),MP-6(microSv/h),MP-7(microSv/h),Wind Direction,Wind Velocity(m/s),Rain
2018/04/18,00:00,0.321,0.199,0.326,0.310,0.300,0.162,0.097,south-southwest,7.3,Yes
2018/04/18,00:10,0.319,0.201,0.327,0.310,0.301,0.163,0.098,south-southwest,7.2,Yes
2018/04/18,00:20,0.319,0.201,0.326,0.312,0.301,0.162,0.098,south-southwest,6.5,Yes
2018/04/18,00:30,0.320,0.200,0.327,0.310,0.302,0.163,0.098,south-southwest,6.9,No
2018/04/18,00:40,0.320,0.200,0.326,0.311,0.301,0.163,0.098,south-southwest,6.2,Yes
2018/04/18,00:50,0.322,0.200,0.326,0.311,0.301,0.164,0.099,south-southwest,5.9,Yes
2018/04/18,01:00,0.320,0.200,0.328,0.311,0.302,0.164,0.099,south-southwest,6.1,Yes
2018/04/18,01:10,0.321,0.201,0.327,0.310,0.301,0.163,0.098,south-southwest,5.8,Yes
2018/04/18,01:20,0.321,0.201,0.329,0.310,0.302,0.164,0.099,south-southwest,6.2,Yes
2018/04/18,01:30,0.320,0.201,0.327,0.311,0.302,0.162,0.098,south-southwest,5.3,Yes
2018/04/18,01:40,0.322,0.201,0.326,0.311,0.301,0.163,0.099,south-southwest,5.4,Yes
2018/04/18,01:50,0.321,0.201,0.328,0.311,0.304,0.164,0.099,south-southwest,4.8,Yes
2018/04/18,02:00,0.322,0.200,0.326,0.312,0.299,0.164,0.099,south-southwest,5.1,Yes
2018/04/18,02:10,0.322,0.200,0.327,0.310,0.304,0.164,0.098,south,4.6,Yes
2018/04/18,02:20,0.321,0.202,0.328,0.311,0.300,0.164,0.099,south,5.1,Yes
2018/04/18,02:30,0.323,0.200,0.326,0.311,0.303,0.165,0.099,south-southwest,5.1,Yes
2018/04/18,02:40,0.321,0.201,0.328,0.311,0.301,0.164,0.099,south,5.0,Yes
2018/04/18,02:50,0.323,0.203,0.328,0.312,0.302,0.166,0.099,south,4.9,Yes
2018/04/18,03:00,0.321,0.201,0.329,0.311,0.302,0.166,0.100,south,4.8,Yes
2018/04/18,03:10,0.323,0.201,0.330,0.312,0.302,0.167,0.101,south,4.1,Yes
2018/04/18,03:20,0.323,0.203,0.329,0.313,0.304,0.165,0.101,south,5.2,Yes
2018/04/18,03:30,0.322,0.203,0.328,0.312,0.303,0.166,0.102,south,6.4,Yes
2018/04/18,03:40,0.322,0.204,0.329,0.312,0.303,0.166,0.102,south,6.2,Yes
2018/04/18,03:50,0.322,0.203,0.328,0.313,0.303,0.166,0.101,south-southwest,6.3,Yes
2018/04/18,04:00,0.322,0.204,0.327,0.312,0.302,0.166,0.101,south-southwest,7.6,Yes
2018/04/18,04:10,0.324,0.204,0.327,0.312,0.304,0.167,0.103,south-southwest,7.8,Yes
2018/04/18,04:20,0.320,0.203,0.329,0.311,0.303,0.167,0.103,south-southwest,7.1,Yes
2018/04/18,04:30,0.322,0.204,0.328,0.312,0.301,0.167,0.103,southwest,6.4,Yes
2018/04/18,04:40,0.322,0.204,0.325,0.312,0.302,0.168,0.102,southwest,5.7,Yes
2018/04/18,04:50,0.322,0.203,0.328,0.310,0.300,0.166,0.102,southwest,5.8,Yes
2018/04/18,05:00,0.322,0.203,0.325,0.311,0.302,0.167,0.102,southwest,5.1,Yes
2018/04/18,05:10,0.321,0.203,0.326,0.309,0.301,0.166,0.103,southwest,4.7,Yes
2018/04/18,05:20,0.321,0.203,0.326,0.309,0.301,0.167,0.102,south-southwest,4.4,Yes
2018/04/18,05:30,0.321,0.203,0.324,0.310,0.302,0.166,0.103,south-southwest,4.8,Yes
2018/04/18,05:40,0.319,0.204,0.324,0.308,0.300,0.166,0.103,south-southwest,4.9,Yes
2018/04/18,05:50,0.319,0.203,0.326,0.309,0.303,0.166,0.102,southwest,6.8,Yes
2018/04/18,06:00,0.318,0.204,0.322,0.309,0.300,0.167,0.101,southwest,6.9,Yes
2018/04/18,06:10,0.321,0.203,0.323,0.308,0.302,0.166,0.102,south-southwest,5.9,Yes
2018/04/18,06:20,0.319,0.203,0.323,0.310,0.301,0.166,0.103,southwest,4.6,Yes
2018/04/18,06:30,0.320,0.202,0.324,0.308,0.299,0.167,0.102,southwest,4.1,Yes
2018/04/18,06:40,0.318,0.202,0.322,0.307,0.301,0.164,0.103,southwest,3.9,Yes
2018/04/18,06:50,0.317,0.202,0.320,0.307,0.299,0.165,0.103,southwest,3.3,Yes
2018/04/18,07:00,0.319,0.201,0.321,0.305,0.300,0.165,0.102,southwest,2.6,Yes
2018/04/18,07:10,0.317,0.201,0.320,0.306,0.300,0.164,0.101,-,CALM,Yes
2018/04/18,07:20,0.317,0.201,0.319,0.306,0.299,0.164,0.102,-,CALM,Yes
2018/04/18,07:30,0.319,0.200,0.322,0.305,0.301,0.165,0.101,-,CALM,Yes
2018/04/18,07:40,0.316,0.202,0.320,0.306,0.298,0.164,0.101,-,CALM,Yes
2018/04/18,07:50,0.318,0.201,0.319,0.304,0.300,0.165,0.101,-,CALM,Yes
2018/04/18,08:00,0.317,0.201,0.321,0.305,0.300,0.163,0.100,-,CALM,Yes
2018/04/18,08:10,0.318,0.201,0.319,0.305,0.299,0.165,0.102,-,CALM,Yes
2018/04/18,08:20,0.317,0.201,0.319,0.303,0.301,0.166,0.102,-,CALM,Yes
2018/04/18,08:30,0.317,0.203,0.320,0.305,0.299,0.166,0.103,-,CALM,Yes
2018/04/18,08:40,0.317,0.201,0.319,0.304,0.301,0.165,0.102,-,CALM,Yes
2018/04/18,08:50,0.315,0.203,0.318,0.304,0.299,0.164,0.103,north,0.8,Yes
2018/04/18,09:00,0.316,0.201,0.318,0.305,0.301,0.165,0.103,north,2.2,Yes
2018/04/18,09:10,0.317,0.202,0.320,0.302,0.300,0.165,0.103,north,1.9,Yes
2018/04/18,09:20,0.315,0.202,0.318,0.304,0.299,0.165,0.103,north,1.4,Yes
2018/04/18,09:30,0.317,0.201,0.318,0.303,0.301,0.163,0.103,north-northeast,1.0,Yes
2018/04/18,09:40,0.315,0.201,0.318,0.302,0.299,0.164,0.102,north-northeast,1.1,Yes
2018/04/18,09:50,0.314,0.202,0.316,0.304,0.300,0.164,0.102,west-southwest,1.9,Yes
2018/04/18,10:00,0.315,0.200,0.317,0.301,0.298,0.164,0.102,northwest,2.7,Yes
2018/04/18,10:10,0.314,0.201,0.316,0.302,0.299,0.163,0.102,north,1.5,Yes
2018/04/18,10:20,0.314,0.200,0.316,0.300,0.298,0.164,0.102,north,1.1,Yes
2018/04/18,10:30,0.313,0.200,0.317,0.300,0.298,0.163,0.102,north-northeast,1.7,Yes
2018/04/18,10:40,0.313,0.199,0.316,0.302,0.299,0.163,0.102,north-northeast,1.4,Yes
2018/04/18,10:50,0.314,0.200,0.317,0.301,0.295,0.163,0.100,northeast,2.4,Yes
2018/04/18,11:00,0.312,0.198,0.315,0.301,0.301,0.163,0.101,north-northeast,2.5,Yes
2018/04/18,11:10,0.314,0.199,0.315,0.302,0.298,0.163,0.101,north-northeast,1.8,Yes
2018/04/18,11:20,0.312,0.199,0.316,0.301,0.300,0.163,0.101,north-northeast,2.9,Yes
2018/04/18,11:30,0.313,0.200,0.316,0.300,0.298,0.162,0.101,-,CALM,Yes
2018/04/18,11:40,0.312,0.200,0.317,0.300,0.298,0.162,0.101,-,CALM,Yes
2018/04/18,11:50,0.311,0.198,0.314,0.299,0.299,0.162,0.101,north,3.0,Yes
2018/04/18,12:00,0.313,0.200,0.315,0.299,0.297,0.162,0.100,northeast,2.9,Yes
2018/04/18,12:10,0.312,0.199,0.314,0.301,0.300,0.162,0.100,north-northeast,3.9,Yes
2018/04/18,12:20,0.311,0.198,0.314,0.299,0.297,0.161,0.100,north-northeast,5.3,Yes
2018/04/18,12:30,0.311,0.199,0.315,0.299,0.298,0.161,0.100,north-northeast,5.0,Yes
2018/04/18,12:40,0.310,0.198,0.313,0.301,0.297,0.161,0.100,north-northeast,6.1,Yes
2018/04/18,12:50,0.312,0.198,0.315,0.299,0.297,0.161,0.100,north-northeast,5.6,Yes
2018/04/18,13:00,0.310,0.198,0.315,0.301,0.299,0.160,0.099,north-northeast,4.3,Yes
2018/04/18,13:10,0.310,0.198,0.315,0.299,0.297,0.161,0.100,north,2.1,Yes
2018/04/18,13:20,0.312,0.199,0.316,0.298,0.299,0.161,0.101,north-northwest,5.0,Yes
2018/04/18,13:30,0.310,0.199,0.315,0.300,0.297,0.161,0.100,north,2.7,Yes
2018/04/18,13:40,0.312,0.199,0.313,0.298,0.298,0.161,0.100,west,6.2,Yes
2018/04/18,13:50,0.311,0.199,0.314,0.299,0.298,0.160,0.100,-,CALM,Yes
2018/04/18,14:00,0.309,0.198,0.315,0.299,0.296,0.163,0.101,-,CALM,Yes
2018/04/18,14:10,0.311,0.199,0.314,0.299,0.298,0.162,0.100,-,CALM,Yes
2018/04/18,14:20,0.310,0.199,0.314,0.299,0.296,0.161,0.101,north-northwest,4.7,Yes
2018/04/18,14:30,0.310,0.198,0.313,0.298,0.297,0.161,0.101,north,5.0,Yes
2018/04/18,14:40,0.310,0.198,0.314,0.298,0.299,0.161,0.101,north,6.2,Yes
2018/04/18,14:50,0.310,0.197,0.313,0.299,0.296,0.161,0.100,-,CALM,Yes
2018/04/18,15:00,0.310,0.196,0.312,0.297,0.298,0.161,0.100,north,5.0,Yes
2018/04/18,15:10,0.310,0.198,0.315,0.298,0.296,0.161,0.101,north,5.3,Yes
2018/04/18,15:20,0.310,0.197,0.313,0.298,0.297,0.160,0.099,north-northwest,4.9,Yes
2018/04/18,15:30,0.311,0.197,0.313,0.298,0.299,0.158,0.099,north-northwest,3.7,Yes
2018/04/18,15:40,0.311,0.196,0.314,0.300,0.295,0.158,0.098,north-northwest,3.8,No
2018/04/18,15:50,0.308,0.196,0.312,0.296,0.297,0.157,0.098,north-northwest,3.7,No
2018/04/18,16:00,0.309,0.194,0.312,0.298,0.295,0.157,0.097,north-northwest,3.7,No
2018/04/18,16:10,0.308,0.194,0.313,0.297,0.297,0.157,0.096,north-northwest,4.3,No
2018/04/18,16:20,0.308,0.194,0.312,0.297,0.294,0.157,0.096,north,5.4,No
2018/04/18,16:30,0.306,0.195,0.311,0.298,0.295,0.157,0.096,north,6.0,Yes
2018/04/18,16:40,0.307,0.193,0.312,0.296,0.296,0.157,0.095,north,3.5,No
2018/04/18,16:50,0.309,0.194,0.311,0.296,0.295,0.157,0.097,north-northwest,3.5,No
2018/04/18,17:00,0.307,0.194,0.311,0.296,0.294,0.156,0.095,north-northwest,2.8,No
2018/04/18,17:10,0.310,0.193,0.310,0.298,0.294,0.157,0.095,north,3.2,No
2018/04/18,17:20,0.307,0.193,0.312,0.298,0.296,0.156,0.096,north-northwest,2.6,No
2018/04/18,17:30,0.308,0.194,0.312,0.295,0.294,0.157,0.095,north,3.1,No
2018/04/18,17:40,0.310,0.194,0.312,0.298,0.294,0.157,0.095,north-northwest,3.0,No
2018/04/18,17:50,0.307,0.194,0.314,0.296,0.295,0.156,0.095,north,3.2,No
2018/04/18,18:00,0.310,0.193,0.312,0.297,0.294,0.156,0.094,north-northwest,3.8,No
2018/04/18,18:10,0.309,0.193,0.313,0.298,0.297,0.156,0.096,north-northwest,4.7,No
2018/04/18,18:20,0.309,0.194,0.312,0.296,0.294,0.157,0.095,north-northwest,4.5,No
2018/04/18,18:30,0.308,0.193,0.311,0.298,0.296,0.157,0.095,north-northwest,4.3,No
2018/04/18,18:40,0.308,0.194,0.313,0.298,0.294,0.157,0.095,north-northwest,2.6,No
2018/04/18,18:50,0.309,0.194,0.312,0.297,0.295,0.156,0.096,north-northwest,4.7,No
2018/04/18,19:00,0.309,0.194,0.314,0.298,0.295,0.156,0.095,north-northwest,3.5,No
2018/04/18,19:10,0.308,0.194,0.312,0.298,0.293,0.157,0.095,north-northwest,3.5,No
2018/04/18,19:20,0.309,0.193,0.312,0.297,0.296,0.157,0.096,north,3.0,No
2018/04/18,19:30,0.309,0.194,0.314,0.297,0.294,0.156,0.095,north,3.5,No
2018/04/18,19:40,0.310,0.194,0.312,0.297,0.294,0.157,0.096,north-northwest,3.0,No
2018/04/18,19:50,0.308,0.193,0.312,0.299,0.296,0.157,0.095,north-northwest,1.8,No
2018/04/18,20:00,0.309,0.195,0.314,0.298,0.293,0.158,0.095,north-northwest,1.7,No
2018/04/18,20:10,0.309,0.195,0.313,0.299,0.296,0.157,0.096,north-northwest,1.8,No
2018/04/18,20:20,0.308,0.195,0.313,0.297,0.295,0.157,0.094,north,1.4,No
2018/04/18,20:30,0.311,0.194,0.313,0.298,0.296,0.156,0.095,north,1.5,No
2018/04/18,20:40,0.309,0.193,0.314,0.299,0.294,0.157,0.095,north-northwest,2.1,No
2018/04/18,20:50,0.309,0.195,0.314,0.298,0.294,0.156,0.095,north-northwest,1.9,No
2018/04/18,21:00,0.309,0.195,0.314,0.299,0.297,0.157,0.096,north-northwest,1.2,No
2018/04/18,21:10,0.309,0.194,0.313,0.299,0.294,0.158,0.095,northwest,0.7,No
2018/04/18,21:20,0.309,0.194,0.312,0.299,0.296,0.156,0.096,west,1.0,No
2018/04/18,21:30,0.310,0.194,0.312,0.300,0.295,0.158,0.096,west-southwest,1.1,No
2018/04/18,21:40,0.310,0.193,0.314,0.299,0.293,0.156,0.095,southwest,1.1,No
2018/04/18,21:50,0.310,0.194,0.313,0.298,0.296,0.158,0.095,southwest,1.8,No
2018/04/18,22:00,0.309,0.194,0.315,0.299,0.294,0.157,0.095,west-southwest,2.4,No
2018/04/18,22:10,0.310,0.194,0.314,0.299,0.295,0.157,0.096,west-southwest,2.4,No
2018/04/18,22:20,0.309,0.195,0.312,0.298,0.294,0.158,0.095,west-southwest,3.3,No
2018/04/18,22:30,0.310,0.194,0.315,0.297,0.296,0.157,0.095,west,3.1,No
2018/04/18,22:40,0.310,0.194,0.314,0.298,0.295,0.158,0.095,west-southwest,1.9,No
2018/04/18,22:50,0.309,0.194,0.314,0.300,0.295,0.157,0.096,west-southwest,1.9,No
2018/04/18,23:00,0.311,0.193,0.315,0.299,0.298,0.158,0.095,west,2.1,No
2018/04/18,23:10,0.310,0.194,0.314,0.298,0.293,0.157,0.096,west-northwest,1.4,No
2018/04/18,23:20,0.309,0.194,0.314,0.300,0.298,0.157,0.096,northwest,1.3,No
2018/04/18,23:30,0.310,0.195,0.315,0.299,0.294,0.157,0.095,north,1.7,No
2018/04/18,23:40,0.310,0.196,0.314,0.299,0.297,0.158,0.096,north-northwest,1.9,No
2018/04/18,23:50,0.311,0.195,0.314,0.300,0.296,0.159,0.095,north-northwest,3.0,No
